| time (UTC) | temp F | wind direction | speed knots | gust knots | rain 1hr in | rain 24hr in | rain mn in | humidity % | barometer mb |
| 20260503072252 | 60 | 112 | 1.7 | 3.5 | 0.00 | 0.00 | 0.00 | 90 | 1011.3 |
| 20260503070752 | 59 | 110 | 1.7 | 3.5 | 0.00 | 0.00 | 0.00 | 91 | 1011.4 |
| 20260503053749 | 55 | 7 | 0.0 | 1.7 | 0.00 | 0.00 | 0.00 | 99 | 1011.4 |
| 20260503052248 | 55 | 7 | 0.0 | 1.7 | 0.00 | 0.00 | 0.00 | 99 | 1011.4 |
| 20260503050748 | 55 | 10 | 1.7 | 3.5 | 0.00 | 0.00 | 0.00 | 98 | 1011.4 |
| 20260503045248 | 55 | 78 | 1.7 | 3.5 | 0.00 | 0.00 | 0.00 | 96 | 1011.4 |
| 20260503043748 | 55 | 100 | 0.0 | 1.7 | 0.00 | 0.00 | 0.00 | 96 | 1011.5 |
| 20260503042247 | 55 | 137 | 1.7 | 7.0 | 0.00 | 0.00 | 0.00 | 97 | 1011.7 |
| 20260503040747 | 55 | 139 | 3.5 | 7.0 | 0.00 | 0.00 | 0.00 | 96 | 1011.6 |
| 20260503035247 | 55 | 125 | 3.5 | 5.2 | 0.01 | 0.00 | 0.00 | 97 | 1011.5 |
| 20260503033748 | 55 | 124 | 1.7 | 3.5 | 0.00 | 0.00 | 0.00 | 99 | 1011.9 |
| 20260503032246 | 55 | 118 | 1.7 | 5.2 | 0.00 | 0.00 | 0.00 | 99 | 1011.9 |
| 20260503030745 | 55 | 69 | 3.5 | 7.0 | 0.08 | 0.00 | 0.00 | 99 | 1012.4 |
| 20260503025245 | 55 | 47 | 3.5 | 3.5 | 0.14 | 0.00 | 0.00 | 99 | 1012.3 |
| 20260503023745 | 53 | 246 | 3.5 | 5.2 | 0.00 | 0.00 | 0.00 | 99 | 1013.2 |
| 20260503022245 | 53 | 226 | 1.7 | 3.5 | 0.00 | 0.00 | 0.00 | 99 | 1013.0 |
| 20260503020745 | 53 | 157 | 1.7 | 1.7 | 0.00 | 0.00 | 0.00 | 99 | 1012.6 |
| 20260503015244 | 51 | 155 | 1.7 | 1.7 | 0.00 | 0.00 | 0.00 | 98 | 1012.7 |
| 20260503013745 | 51 | 150 | 1.7 | 3.5 | 0.00 | 0.00 | 0.00 | 97 | 1012.8 |
| 20260503012242 | 53 | 154 | 1.7 | 5.2 | 0.00 | 0.00 | 0.00 | 98 | 1012.9 |
| 20260503010742 | 55 | 124 | 3.5 | 5.2 | 0.00 | 0.00 | 0.00 | 97 | 1012.7 |
| 20260503005241 | 55 | 108 | 1.7 | 3.5 | 0.00 | 0.00 | 0.00 | 98 | 1013.0 |
| 20260503003741 | 55 | 141 | 1.7 | 3.5 | 0.00 | 0.00 | 0.00 | 98 | 1013.7 |
| 20260503002241 | 55 | 195 | 1.7 | 5.2 | 0.00 | 0.00 | 0.00 | 95 | 1013.8 |
| 20260503000741 | 57 | 218 | 3.5 | 5.2 | 0.00 | 0.00 | 0.00 | 95 | 1014.3 |
| 20260502235241 | 55 | 218 | 3.5 | 5.2 | 0.00 | 0.00 | 0.00 | 97 | 1014.5 |
| 20260502233741 | 57 | 176 | 1.7 | 5.2 | 0.00 | 0.00 | 0.00 | 95 | 1014.1 |
| 20260502232241 | 57 | 130 | 3.5 | 7.0 | 0.00 | 0.00 | 0.00 | 94 | 1014.1 |
| 20260502230741 | 59 | 125 | 5.2 | 7.0 | 0.00 | 0.00 | 0.00 | 93 | 1014.1 |
| 20260502225241 | 59 | 115 | 5.2 | 7.0 | 0.00 | 0.00 | 0.00 | 93 | 1013.8 |
| 20260502223741 | 57 | 116 | 1.7 | 3.5 | 0.00 | 0.00 | 0.00 | 96 | 1013.8 |
| 20260502222241 | 57 | 35 | 1.7 | 3.5 | 0.00 | 0.00 | 0.00 | 97 | 1013.7 |
| 20260502220741 | 59 | 91 | 1.7 | 3.5 | 0.00 | 0.00 | 0.00 | 95 | 1014.0 |
| 20260502215240 | 59 | 144 | 1.7 | 5.2 | 0.00 | 0.00 | 0.00 | 95 | 1014.7 |
| 20260502213741 | 59 | 164 | 0.0 | 3.5 | 0.00 | 0.00 | 0.00 | 98 | 1015.0 |
| 20260502212239 | 59 | 68 | 1.7 | 3.5 | 0.00 | 0.00 | 0.00 | 98 | 1015.0 |
| 20260502210739 | 60 | 236 | 3.5 | 22.6 | 0.91 | 0.00 | 0.00 | 97 | 1015.2 |
| 20260502205236 | 66 | 183 | 11.3 | 20.9 | 0.00 | 0.00 | 0.00 | 70 | 1015.2 |
| 20260502203736 | 60 | 176 | 1.7 | 7.0 | 0.00 | 0.00 | 0.00 | 80 | 1014.8 |
| 20260502202235 | 62 | 188 | 1.7 | 1.7 | 0.00 | 0.00 | 0.00 | 76 | 1014.6 |
| 20260502200735 | 60 | 211 | 1.7 | 1.7 | 0.00 | 0.00 | 0.00 | 82 | 1014.3 |
| 20260502195233 | 62 | 40 | 1.7 | 3.5 | 0.00 | 0.00 | 0.00 | 74 | 1014.2 |
| 20260502193733 | 64 | 93 | 1.7 | 3.5 | 0.00 | 0.00 | 0.00 | 69 | 1014.2 |
| 20260502192232 | 66 | 44 | 0.0 | 1.7 | 0.00 | 0.00 | 0.00 | 67 | 1014.2 |
| 20260502190732 | 68 | 346 | 0.0 | 0.0 | 0.00 | 0.00 | 0.00 | 63 | 1014.2 |
| 20260502185231 | 69 | 284 | 1.7 | 3.5 | 0.00 | 0.00 | 0.00 | 59 | 1014.1 |
| 20260502183732 | 69 | 279 | 1.7 | 5.2 | 0.00 | 0.00 | 0.00 | 54 | 1014.0 |
| 20260502182230 | 71 | 250 | 3.5 | 5.2 | 0.00 | 0.00 | 0.00 | 54 | 1014.0 |
| 20260502180730 | 73 | 280 | 1.7 | 3.5 | 0.00 | 0.00 | 0.00 | 46 | 1014.1 |
| 20260502163729 | 75 | 231 | 5.2 | 9.6 | 0.00 | 0.00 | 0.00 | 46 | 1015.1 |
| 20260502162228 | 71 | 218 | 5.2 | 11.3 | 0.00 | 0.00 | 0.00 | 51 | 1015.3 |
| 20260502160728 | 73 | 236 | 5.2 | 11.3 | 0.00 | 0.00 | 0.00 | 47 | 1015.5 |
| 20260502152227 | 73 | 226 | 5.2 | 13.0 | 0.00 | 0.00 | 0.00 | 47 | 1015.9 |
| 20260502150727 | 73 | 198 | 5.2 | 11.3 | 0.00 | 0.00 | 0.00 | 47 | 1016.1 |
| 20260502130725 | 75 | 193 | 5.2 | 14.8 | 0.00 | 0.00 | 0.00 | 45 | 1017.0 |
| 20260502123724 | 73 | 209 | 7.0 | 19.1 | 0.00 | 0.00 | 0.00 | 44 | 1017.4 |
| 20260502122224 | 71 | 195 | 9.6 | 14.8 | 0.00 | 0.00 | 0.00 | 45 | 1017.6 |
| 20260502120724 | 73 | 213 | 7.0 | 14.8 | 0.00 | 0.00 | 0.00 | 44 | 1017.6 |
| 20260502115223 | 71 | 209 | 7.0 | 13.0 | 0.00 | 0.00 | 0.00 | 44 | 1017.7 |
| 20260502113723 | 71 | 225 | 7.0 | 13.0 | 0.00 | 0.00 | 0.00 | 47 | 1017.9 |
| 20260502112222 | 69 | 207 | 7.0 | 13.0 | 0.00 | 0.00 | 0.00 | 42 | 1018.0 |
| 20260502110722 | 69 | 204 | 7.0 | 13.0 | 0.00 | 0.00 | 0.00 | 43 | 1018.1 |
| 20260502105222 | 69 | 199 | 9.6 | 14.8 | 0.00 | 0.00 | 0.00 | 42 | 1018.2 |
| 20260502103722 | 71 | 204 | 7.0 | 13.0 | 0.00 | 0.00 | 0.00 | 42 | 1018.2 |
| 20260502102221 | 71 | 210 | 7.0 | 13.0 | 0.00 | 0.00 | 0.00 | 42 | 1018.2 |
| 20260502100721 | 71 | 184 | 7.0 | 13.0 | 0.00 | 0.00 | 0.00 | 43 | 1018.4 |
| 20260502090720 | 68 | 197 | 9.6 | 13.0 | 0.00 | 0.00 | 0.00 | 40 | 1018.6 |